sat.trackr.live / text

‹ back to catalog

STARLINK-1199

NORAD 45201 · 2020-012Z

PAYLOAD ACTIVE UNKNOWN

§ Identity

Operator
Country
US
Launch date
2020-02-17
Launch site
AFETR
Launch vehicle
Mass (kg)
RCS (m²)

Purposes: comms

External: N2YO · Heavens-Above · Gunter

§ Orbital elements

Epoch: 2026-05-24T22:50:11.987232Z

Period
93.90 min
Inclination
53.1581°
Eccentricity
0.0002446
Mean motion
15.33568645 rev/d
Perigee alt
463.5 km
Apogee alt
466.8 km
Semi-major
6,843.3 km
B*
1.1924e-3
RAAN
29.0220°
Arg perigee
138.4854°
Mean anomaly
221.6334°
Rev number
34,684

§ Raw data

STARLINK-11991 45201U 20012Z   26144.95152763  .00039073  00000+0  11924-2 0  99922 45201  53.1581  29.0220 0002446 138.4854 221.6334 15.33568645346843

JSON: /api/v1/satellites/45201 · /tle

For live sub-satellite position, see the globe view (requires WebGL).

§ Visibility from observer

Set your observer location to see the next 7 days of passes ≥ 10°. The values pass through the URL so the page stays shareable.

No JS? Fill the form by hand. The geolocation button needs JavaScript.